CAPE
0 0 0 0 0 0 0 0 0 0 0 0 0 0 0 0 0 0 0 0 0 0 0 0 0 0 0 0 0 1 1 0
0 0 0 0 0 0 0 0 0 0 0 0 0 0 0 0 0 0 0 0 0 0 0 0 0 0 0 0 0 0 0 2
0 0 0 0 0 0 0 0 0 0 0 0 0 0 0 0 0 0 0 0 0 0 0 0 0 0 0 0 0 0 0 0
0 0 0 0 0 0 0 0 0 0 0 0 0 0 0 0 0 0 0 0 0 0 0 0 0 0 0 0 1 0 0 0
0 0 0 0 0 0 0 0 0 0 0 0 0 0 0 0 0 0 0 0 0 0 0 0 0 0 0 0 0 1 0 0
0 0 0 0 0 0 0 0 0 0 0 0 0 0 0 0 0 0 0 0 0 0 0 0 0 0 0 0 1 0 1 0
0 0 0 0 0 0 0 0 0 0 0 0 0 0 0 0 0 0 0 0 0 0 0 0 0 0 0 0 1 0 0 1
0 0 0 0 0 0 0 0 0 0 0 0 0 0 0 0 0 0 0 0 0 0 0 0 0 0 0 1 0 0 0 0
0 0 0 0 0 0 0 0 0 0 0 0 0 0 0 0 0 0 0 0 0 0 0 0 0 0 0 0 1 1 1 0
0 0 0 0 0 0 0 0 0 0 0 0 0 0 0 0 0 0 0 0 0 0 0 0 0 0 0 3 0 0 0 0
0 0 0 0 0 0 0 0 0 0 0 0 0 0 0 0 0 0 0 0 0 0 0 0 0 0 0 0 0 0 0 0
0 0 0 0 0 0 0 0 0 0 0 0 0 0 0 0 0 0 0 0 0 0 0 0 0 0 0 0 0 0 0 0
0 0 0 0 0 0 0 0 0 0 0 0 0 0 0 0 0 0 0 0 0 0 0 0 0 0 0 1 0 0 0 0
0 0 0 0 0 0 0 0 0 0 0 0 0 0 0 0 0 0 0 0 0 0 0 0 0 0 0 4 0 0 0 0
0 0 0 0 0 0 0 0 0 0 0 0 0 0 0 0 0 0 0 0 0 0 0 0 0 0 0 2 0 0 0 0
0 0 0 0 0 0 0 0 0 0 0 0 0 0 0 0 0 0 0 0 0 0 0 0 0 0 0 14 0 0 0 0
0 0 0 0 0 0 0 0 0 0 0 0 0 0 0 0 0 0 0 0 0 0 0 0 0 0 0 13 1 0 0 0
0 0 0 0 0 0 0 0 0 0 0 0 0 0 0 0 0 0 0 0 0 0 0 0 0 0 5 6 0 0 0 2
0 0 0 0 0 0 0 0 0 0 0 0 0 0 0 0 0 0 0 0 0 0 0 0 0 0 9 2 0 0 0 0
CIN
0 0 0 0 0 0 0 0 0 0 0 0 0 0 0 0 0 0 0 0 0 0 0 0 0 0 0 0 0 -1 0 -1
0 0 0 0 0 0 0 0 0 0 0 0 0 0 0 0 0 0 0 0 0 0 0 0 0 0 0 0 0 0 -1 0
0 0 0 0 0 0 0 0 0 0 0 0 0 0 0 0 0 0 0 0 0 0 0 0 0 0 0 0 0 0 -1 0
0 0 0 0 0 0 0 0 0 0 0 0 0 0 0 0 0 0 0 0 0 0 0 0 0 0 0 0 0 0 0 0
0 0 0 0 0 0 0 0 0 0 0 0 0 0 0 0 0 0 0 0 0 0 0 0 0 0 0 0 0 0 0 0
0 0 0 0 0 0 0 0 0 0 0 0 0 0 0 0 0 0 0 0 0 0 0 0 0 0 0 0 0 0 0 0
0 0 0 0 0 0 0 0 0 0 0 0 0 0 0 0 0 0 0 0 0 0 0 0 0 0 0 0 0 0 0 0
0 0 0 0 0 0 0 0 0 0 0 0 0 0 0 0 0 0 0 0 0 0 0 0 0 0 0 0 0 0 0 0
0 0 0 0 0 0 0 0 0 0 0 0 0 0 0 0 0 0 0 0 0 0 0 0 0 0 0 0 0 0 0 0
0 0 0 0 0 0 0 0 0 0 0 0 0 0 0 0 0 0 0 0 0 0 0 0 0 0 0 0 0 0 0 0
0 0 0 0 0 0 0 0 0 0 0 0 0 0 0 0 0 0 0 0 0 0 0 0 0 0 0 0 0 0 0 0
0 0 0 0 0 0 0 0 0 0 0 0 0 0 0 0 0 0 0 0 0 0 0 0 0 0 0 0 0 0 0 0
0 0 0 0 0 0 0 0 0 0 0 0 0 0 0 0 0 0 0 0 0 0 0 0 0 0 0 0 0 0 0 0
0 0 0 0 0 0 0 0 0 0 0 0 0 0 0 0 0 0 0 0 0 0 0 0 0 0 0 0 0 0 0 0
0 0 0 0 0 0 0 0 0 0 0 0 0 0 0 0 0 0 0 0 0 0 0 0 0 0 0 -4 0 0 0 0
0 0 0 0 0 0 0 0 0 0 0 0 0 0 0 0 0 0 0 0 0 0 0 0 0 0 0 0 0 0 0 0
0 0 0 0 0 0 0 0 0 0 0 0 0 0 0 0 0 0 0 0 0 0 0 0 0 0 -1 0 -2 0 0 0
0 0 0 0 0 0 0 0 0 0 0 0 0 0 0 0 0 0 0 0 0 0 0 0 0 0 0 -1 -1 0 0 0
0 0 0 0 0 0 0 0 0 0 0 0 0 0 0 0 0 0 0 0 0 0 0 0 0 0 -1 -2 -1 0 0 -1
Wind_Speed
16 19 22 26 29 32 36 36 37 37 36 34 34 37 37 38 40 40 41 40 41 40 39 39 38 36 40 40 39 38 37 40
15 18 22 26 29 33 35 37 37 37 36 37 36 37 39 39 40 40 40 39 40 39 39 39 40 36 39 40 39 40 38 40
14 19 22 25 28 32 34 35 36 36 37 36 35 36 36 38 39 39 38 39 39 39 39 39 39 37 39 40 40 39 38 40
13 18 22 24 28 31 33 34 35 36 36 37 36 34 35 37 38 39 38 37 38 39 39 38 39 37 38 39 39 39 40 39
13 17 20 23 26 29 31 33 34 35 36 37 38 38 39 38 37 37 37 37 37 38 38 39 39 37 38 38 38 37 38 39
11 15 18 22 25 28 31 32 34 34 36 37 38 38 36 36 36 37 37 37 37 37 38 39 40 38 37 38 38 37 37 36
11 14 17 22 25 28 31 33 34 34 36 37 37 38 38 38 38 37 36 36 36 37 39 39 39 39 38 37 36 36 36 36
9 13 17 21 25 28 31 33 34 34 36 37 37 38 37 37 36 36 37 37 37 37 38 39 40 39 38 36 36 37 37 36
9 13 17 21 24 28 31 32 33 34 35 36 36 37 36 35 35 34 35 36 36 35 36 38 39 39 39 37 37 36 36 35
9 13 17 21 23 28 29 30 32 34 35 36 37 37 36 35 34 34 34 34 34 35 36 39 38 39 39 40 37 37 36 35
10 14 18 21 23 26 28 29 31 33 35 36 36 36 35 34 34 35 34 34 34 34 37 39 38 39 40 40 39 36 36 34
10 14 18 21 23 25 27 29 31 33 35 35 36 36 35 34 35 34 34 33 34 34 36 39 39 39 39 39 39 37 36 33
11 14 18 21 22 25 27 29 31 32 33 34 35 35 35 35 35 34 34 35 34 34 35 38 38 38 39 39 39 36 33 34
12 15 18 20 22 25 27 29 30 31 33 34 34 35 34 35 34 34 34 34 34 35 35 37 37 38 37 37 36 34 32 30
13 17 19 19 22 24 26 28 29 31 33 33 35 35 34 34 34 34 34 33 34 35 35 35 37 36 36 34 36 33 31 29
14 17 18 20 22 24 26 28 30 31 32 33 34 33 33 34 34 34 33 33 34 34 34 36 36 36 36 36 36 32 30 27
14 17 18 21 23 24 25 28 30 30 32 32 32 32 33 35 34 33 33 34 34 34 35 36 37 36 35 37 36 31 28 23
14 16 18 21 22 23 27 27 29 29 30 30 30 32 33 34 34 34 34 34 33 34 34 35 37 36 36 39 36 30 27 22
14 16 19 20 21 23 25 27 28 28 29 29 29 31 32 33 34 35 34 33 34 33 33 34 34 36 37 39 36 30 27 21
Wind_Direction
24 21 20 18 15 12 10 10 10 10 9 9 9 8 7 6 5 5 4 5 4 4 4 4 4 2 358 354 347 340 335 334
19 15 15 14 12 10 9 9 10 10 9 6 6 5 5 5 5 5 5 5 5 5 6 5 4 4 0 354 348 342 340 336
9 7 9 10 9 8 8 9 10 10 9 8 7 5 5 5 5 6 6 6 6 7 6 5 4 3 1 356 351 347 343 340
1 3 6 9 8 8 8 9 10 9 8 7 7 7 6 4 4 5 5 6 7 7 7 6 5 4 1 357 353 348 344 344
359 2 5 7 7 8 8 9 9 8 7 7 6 5 3 3 3 5 5 7 7 7 7 6 5 3 359 357 354 350 347 342
357 2 6 7 7 6 7 8 7 7 8 8 7 6 4 4 5 5 6 6 7 7 7 5 4 3 359 356 354 352 351 348
360 5 7 6 6 6 7 6 7 8 7 8 7 5 4 4 5 5 5 5 6 6 6 6 4 3 360 357 356 354 351 349
1 3 3 4 4 5 5 7 7 8 7 7 7 6 5 5 5 4 4 4 4 5 5 5 4 3 1 358 356 353 351 349
3 5 4 3 3 4 5 6 7 7 7 7 7 6 6 6 6 6 5 4 6 7 7 5 5 4 2 360 356 354 352 350
4 7 5 3 3 3 5 7 7 8 7 7 7 7 8 7 8 8 7 8 9 8 8 6 6 4 3 360 357 354 353 351
8 7 5 5 4 5 7 8 8 8 8 8 8 8 9 10 10 8 10 10 10 10 8 7 6 5 4 2 0 358 355 353
7 7 6 5 6 7 8 8 9 8 8 8 9 10 10 12 11 12 12 12 11 11 10 8 7 8 7 6 4 2 0 358
8 7 5 6 8 7 7 9 9 9 9 9 10 11 12 12 11 13 13 13 13 13 11 10 11 10 9 7 7 8 7 4
5 4 3 6 7 7 8 9 10 10 10 10 11 11 13 12 13 13 14 14 15 14 14 13 13 11 12 12 11 10 10 10
2 360 1 7 8 8 9 10 11 11 10 11 11 12 14 14 14 15 16 17 16 16 17 16 15 15 16 15 13 13 14 15
359 0 3 6 7 9 11 11 11 11 12 12 14 16 16 16 17 18 19 19 18 19 19 19 19 19 18 18 17 20 20 23
0 2 5 5 6 9 11 11 11 13 12 14 17 19 18 18 19 20 21 20 21 21 21 21 20 21 20 22 22 25 27 34
360 4 5 6 10 13 9 12 13 15 16 17 20 20 20 20 21 22 21 22 22 22 22 23 22 23 23 23 26 31 34 42
5 8 7 13 15 15 15 14 16 16 17 20 22 22 22 22 23 22 23 24 23 23 24 24 26 26 26 26 30 37 41 48